[[{"header":{"parameterUnit":"m.s-1","parameterCategory":1,"la1":30.2991,"la2":30.254,"lo1":-89.0895,"lo2":-89.0444,"dy":0.0017,"dx":0.0017,"nx":28,"ny":28,"refTime":"2023-10-23T03:00:00:Z","depth":0,"parameterNumber":2,"parameterNumberName":"U-component_of_WINDS"},"data":[0,0,0,0,0,0,0,0,0,0,0,0,0,0,0,0,0,0,0,0,0,0,0,0,0,0,0,0,0,0,0,0,0,0,0,0,0,0,0,0,0,0,0,0,0,0,0,0,0,0,0,0,0,0,0,0,0,0,-3.7007,-3.7008,0,-3.7064,-3.7065,-3.7066,-3.7003,-3.7,-3.6998,-3.6996,-3.7052,-3.7056,-3.7059,0,0,0,0,0,0,0,0,0,0,0,0,0,-3.6842,-3.6846,-3.7007,-3.7008,-3.7009,-3.7064,-3.7065,-3.7066,-3.7003,-3.7,-3.6997,-3.6995,-3.7051,-3.7055,-3.706,0,0,0,0,0,0,0,0,0,0,0,0,0,-3.6908,-3.6847,-3.7007,-3.6984,-3.6983,-3.7064,-3.7065,-3.7066,-3.7004,-3.7,-3.6997,-3.6993,-3.7049,-3.7055,-3.706,-3.7166,0,0,-3.7077,-3.708,0,0,0,0,0,0,0,0,-3.6904,-3.6914,-3.6987,-3.6986,-3.6984,-3.7023,-3.7027,-3.71,-3.7005,-3.6996,-3.6996,-3.6992,-3.7045,-3.7051,-3.7069,-3.7169,-3.7171,-3.7078,-3.7081,-3.7084,-3.7085,0,0,0,0,0,0,0,-3.69,-3.6911,-3.703,-3.6988,-3.6986,-3.6971,-3.6976,-3.7041,-3.704,-3.6996,-3.6992,-3.7,-3.7044,-3.7064,-3.707,-3.7172,-3.7078,-3.7083,-3.7086,-3.7088,-3.7363,-3.7367,0,0,0,0,0,0,-3.6898,-3.6908,-3.7028,-3.7031,-3.6935,-3.6976,-3.6982,-3.7014,-3.7039,-3.7039,-3.7003,-3.6996,-3.7056,-3.7064,-3.7072,-3.7198,-3.7084,-3.7089,-3.7092,-3.7359,-3.7364,-3.7368,0,0,0,0,0,0,-3.6895,-3.691,-3.7025,-3.6969,-3.6982,-3.6983,-3.7019,-3.7017,-3.7037,-3.7044,-3.7043,-3.7024,-3.7054,-3.7064,-3.7144,-3.7199,-3.7091,-3.7096,-3.7354,-3.736,-3.7366,-3.745,0,0,0,0,0,0,-3.6891,-3.6909,-3.6949,-3.697,-3.6985,-3.7097,-3.7022,-3.7021,-3.7047,-3.704,-3.7063,-3.7064,-3.7052,-3.7136,-3.7149,-3.7204,-3.7101,-3.7349,-3.7357,-3.7364,-3.7443,-3.7458,-3.7472,0,0,0,0,0,-3.6885,-3.697,-3.6952,-3.6966,-3.7036,-3.71,-3.7109,-3.7094,-3.7052,-3.7093,-3.7097,-3.7063,-3.7191,-3.7144,-3.7159,-3.7217,-3.7346,-3.7355,-3.7363,-3.7436,-3.7455,-3.7472,0,0,0,0,0,0,-3.6954,-3.6972,-3.6952,-3.7046,-3.7073,-3.7089,-3.714,-3.7115,-3.7153,-3.7144,-3.7123,-3.7129,-3.7214,-3.7224,-3.7171,-3.7321,-3.7261,-3.7274,-3.7312,-3.733,-3.7344,-3.7339,-3.7105,0,0,0,0,0,-3.6981,-3.7032,-3.7045,-3.7127,-3.7141,-3.7139,-3.7166,-3.7153,-3.7178,-3.7189,-3.7199,-3.7224,-3.727,-3.7301,-3.7344,-3.7445,-3.7449,-3.7492,-3.7506,-3.7518,-3.7529,-3.7583,-3.7602,-3.7397,-3.7397,-3.7397,0,0,-3.7035,-3.7052,-3.7085,-3.7141,-3.716,-3.7213,-3.7148,-3.7206,-3.7245,-3.7197,-3.7273,-3.7282,-3.7309,-3.74,-3.7441,-3.7411,-3.7587,-3.753,-3.7539,-3.7543,-3.7594,-3.7614,-3.7631,-3.7403,-3.7402,-3.7401,0,0,-3.7162,-3.718,-3.725,-3.7271,-3.73,-3.7298,-3.7316,-3.7337,-3.7341,-3.7418,-3.7383,-3.7429,-3.7509,-3.753,-3.7551,-3.7689,-3.7659,-3.7704,-3.7779,-3.7833,-3.7849,-3.7863,-3.7912,-3.7929,-3.7714,-3.7714,-3.7715,0,-3.7225,-3.7304,-3.7289,-3.7351,-3.7377,-3.7338,-3.7409,-3.7429,-3.7471,-3.7489,-3.7456,-3.7556,-3.7572,-3.7667,-3.7701,-3.772,-3.7739,-3.77,-3.7848,-3.7862,-3.7875,-3.7921,-3.7939,-3.772,-3.7719,-3.7718,-3.7718,0,-3.7381,-3.7437,-3.749,-3.7533,-3.7565,-3.7631,-3.7626,-3.766,-3.7645,-3.7647,-3.7726,-3.7744,-3.779,-3.7812,-3.7797,-3.7906,-3.7886,-3.7851,-3.779,-3.79,-3.7943,-3.796,-3.7727,-3.7725,-3.7724,-3.7722,0,0,-3.755,-3.7585,-3.7605,-3.7624,-3.7655,-3.7698,-3.7763,-3.7809,-3.7839,-3.787,-3.7923,-3.7993,-3.7961,-3.7985,-3.7973,-3.802,-3.8128,-3.7979,-3.7979,-3.8005,-3.8248,-3.8274,-3.8294,-3.8109,-3.8112,-3.8115,-3.8246,0,-3.7676,-3.7789,-3.7778,-3.7885,-3.7936,-3.7901,-3.7958,-3.7983,-3.7987,-3.8031,-3.8035,-3.8085,-3.8039,-3.8054,-3.8099,-3.8105,-3.8176,-3.8096,-3.8158,-3.816,-3.815,-3.8317,-3.8343,-3.8466,-3.8263,-3.8265,-3.8267,0,-3.7838,-3.7876,-3.7988,-3.8013,-3.8034,-3.8085,-3.8127,-3.817,-3.8198,-3.8198,-3.8227,-3.8207,-3.8272,-3.8212,-3.8301,-3.8247,-3.8272,-3.8279,-3.8283,-3.8287,-3.8219,-3.8324,-3.8505,-3.8522,-3.8294,-3.8292,-3.829,0,-3.7948,-3.8028,-3.8106,-3.8123,-3.8154,-3.8191,-3.8205,-3.823,-3.8259,-3.8296,-3.8315,-3.8359,-3.8383,-3.8417,-3.841,-3.8367,-3.8502,-3.8441,-3.8503,-3.8503,-3.8531,-3.8529,-3.8717,-3.855,-3.855,-3.8549,-3.8549,0,-3.8089,-3.8159,-3.8156,-3.8203,-3.8281,-3.8269,-3.8346,-3.8356,-3.8379,-3.8427,-3.84,-3.8446,-3.8435,-3.8481,-3.8476,-3.8551,-3.8562,-3.8563,-3.8561,-3.8565,-3.8565,-3.858,-3.857,-3.8554,-3.8553,-3.8552,-3.8551,0,-3.8225,-3.8226,-3.8308,-3.8331,-3.8339,-3.8395,-3.8414,-3.8459,-3.8463,-3.8525,-3.8539,-3.8544,-3.8597,-3.8594,-3.8653,-3.865,-3.8742,-3.8731,-3.8733,-3.873,-3.8792,-3.8785,-3.8994,-3.9021,-3.8839,-3.884,-3.8842,0,-3.8314,-3.8367,-3.8397,-3.8428,-3.8445,-3.8496,-3.8526,-3.8517,-3.8549,-3.8587,-3.8627,-3.8678,-3.8718,-3.8805,-3.8813,-3.8859,-3.8847,-3.8918,-3.8854,-3.8857,-3.8847,-3.8843,-3.8849,-3.8929,-3.8931,-3.8933,-3.8934,0,-3.8471,-3.847,-3.8514,-3.856,-3.8597,-3.8632,-3.8664,-3.8691,-3.8686,-3.8723,-3.8778,-3.8809,-3.8871,-3.8922,-3.8967,-3.8981,-3.8957,-3.8955,-3.8972,-3.8975,-3.8974,-3.8975,-3.8765,-3.8949,-3.8948,-3.8947,-3.8946,-3.8945,-3.8585,-3.8631,-3.866,-3.8711,-3.8735,-3.8766,-3.8809,-3.8819,-3.8865,-3.8915,-3.8907,-3.8968,-3.8997,-3.9054,-3.9073,-3.9121,-3.9096,-3.912,-3.9126,-3.9131,-3.9138,-3.8968,-3.9129,-3.9129,-3.9128,-3.9128,-3.9128,0,-3.874,-3.8758,-3.8805,-3.8852,-3.8892,-3.8868,-3.8903,-3.8938,-3.8993,-3.9022,-3.9062,-3.9126,-3.9176,-3.9189,-3.9237,-3.9273,-3.9263,-3.9286,-3.9282,-3.9286,-3.9158,-3.9139,-3.9293,-3.9293,-3.9293,-3.9293,-3.9293,-3.9293,-3.8826,-3.8902,-3.8904,-3.8993,-3.9009,-3.907,-3.9092,-3.9121,-3.9144,-3.9216,-3.9258,-3.9267,-3.929,-3.934,-3.9385,-3.9388,-3.9406,-3.9433,-3.9431,-3.9311,-3.9295,-3.9279,-3.926,-3.9438,-3.9438,-3.9555,-3.9556,-3.9557]},{"header":{"parameterUnit":"m.s-1","parameterCategory":1,"la1":30.2991,"la2":30.254,"lo1":-89.0895,"lo2":-89.0444,"dy":0.0017,"dx":0.0017,"nx":28,"ny":28,"refTime":"2023-10-23T03:00:00:Z","depth":0,"parameterNumber":3,"parameterNumberName":"V-component_of_WINDS"},"data":[0,0,0,0,0,0,0,0,0,0,0,0,0,0,0,0,0,0,0,0,0,0,0,0,0,0,0,0,0,0,0,0,0,0,0,0,0,0,0,0,0,0,0,0,0,0,0,0,0,0,0,0,0,0,0,0,0,0,1.384,1.3842,0,1.4016,1.4018,1.402,1.4057,1.4056,1.4054,1.4053,1.4232,1.4238,1.4244,0,0,0,0,0,0,0,0,0,0,0,0,0,1.3539,1.3544,1.384,1.3842,1.3844,1.4015,1.4018,1.402,1.4057,1.4056,1.4054,1.4053,1.423,1.4237,1.4244,0,0,0,0,0,0,0,0,0,0,0,0,0,1.3687,1.3546,1.384,1.3884,1.3889,1.4015,1.4018,1.4021,1.4058,1.4056,1.4054,1.4052,1.4228,1.4236,1.4245,1.4339,0,0,1.4273,1.4276,0,0,0,0,0,0,0,0,1.3679,1.3698,1.3875,1.3881,1.3887,1.4013,1.3977,1.4127,1.4058,1.3994,1.4053,1.4051,1.416,1.4175,1.4212,1.4347,1.4355,1.4273,1.4279,1.4283,1.4285,0,0,0,0,0,0,0,1.3669,1.3691,1.3909,1.3877,1.3885,1.3895,1.3914,1.4006,1.4086,1.3999,1.4002,1.4023,1.4163,1.4203,1.4216,1.4358,1.4273,1.4281,1.4287,1.429,1.4584,1.4586,0,0,0,0,0,0,1.365,1.3682,1.3904,1.3915,1.3776,1.3902,1.3923,1.3974,1.4085,1.41,1.4024,1.4024,1.4189,1.4206,1.4223,1.4343,1.4283,1.4291,1.4296,1.4582,1.4584,1.4587,0,0,0,0,0,0,1.3644,1.367,1.3897,1.38,1.3829,1.3909,1.3966,1.3979,1.4019,1.4104,1.4118,1.405,1.4188,1.421,1.4311,1.435,1.4295,1.4303,1.4579,1.4582,1.4586,1.4583,0,0,0,0,0,0,1.3635,1.3667,1.3703,1.38,1.3834,1.3981,1.3969,1.3984,1.4034,1.4035,1.4132,1.4146,1.4188,1.4298,1.432,1.4361,1.431,1.4576,1.458,1.4585,1.458,1.4586,1.4591,0,0,0,0,0,1.3624,1.3694,1.3705,1.3731,1.3881,1.3983,1.4003,1.4051,1.4037,1.4074,1.413,1.4143,1.4342,1.4308,1.4333,1.4378,1.4573,1.4579,1.4584,1.4577,1.4585,1.4591,0,0,0,0,0,0,1.3598,1.3707,1.372,1.3824,1.3894,1.399,1.4038,1.4056,1.4132,1.413,1.4185,1.4207,1.4305,1.4351,1.4311,1.4477,1.4457,1.4468,1.4443,1.4451,1.4456,1.4444,1.4317,0,0,0,0,0,1.3605,1.3679,1.377,1.3853,1.3888,1.3957,1.4003,1.4034,1.4109,1.4139,1.4202,1.4274,1.4354,1.4404,1.4482,1.4587,1.461,1.463,1.4636,1.464,1.4649,1.4712,1.4723,1.4605,1.4605,1.4605,0,0,1.3618,1.3687,1.373,1.3849,1.3908,1.3985,1.3981,1.4062,1.412,1.4151,1.4252,1.43,1.4385,1.4489,1.4538,1.4531,1.4687,1.4647,1.465,1.4657,1.4719,1.473,1.474,1.4609,1.4608,1.4608,0,0,1.3683,1.3742,1.3819,1.3878,1.3967,1.4013,1.4032,1.4126,1.416,1.4261,1.4288,1.4357,1.4492,1.4553,1.4601,1.4693,1.4709,1.4716,1.4747,1.4807,1.4816,1.4825,1.4861,1.4873,1.4725,1.4725,1.4725,0,1.3689,1.3806,1.3856,1.3937,1.399,1.4023,1.4103,1.4157,1.4267,1.4303,1.4293,1.4466,1.4524,1.4645,1.4668,1.4705,1.473,1.4706,1.4811,1.482,1.4829,1.4864,1.4877,1.4726,1.4725,1.4725,1.4725,0,1.3811,1.3891,1.3943,1.405,1.4108,1.4188,1.4251,1.4304,1.4331,1.4379,1.4483,1.4556,1.4651,1.4681,1.4707,1.4807,1.48,1.48,1.4782,1.484,1.4874,1.4887,1.4726,1.4726,1.4726,1.4726,0,0,1.3863,1.3999,1.4017,1.4068,1.417,1.4234,1.4316,1.441,1.4456,1.4531,1.4603,1.4718,1.472,1.4775,1.4808,1.486,1.4933,1.4855,1.4858,1.4869,1.5052,1.5053,1.5068,1.4944,1.4947,1.4949,1.5046,0,1.3942,1.4091,1.414,1.4264,1.4341,1.4375,1.4447,1.4519,1.4566,1.4639,1.4691,1.4773,1.4767,1.4802,1.4855,1.4913,1.4971,1.4906,1.5014,1.5017,1.4993,1.5085,1.5086,1.5174,1.5059,1.5062,1.5063,0,1.4054,1.4134,1.4265,1.4362,1.4396,1.446,1.4552,1.4621,1.4703,1.4734,1.4798,1.4828,1.4917,1.4893,1.5018,1.4973,1.502,1.5055,1.506,1.5073,1.5045,1.5103,1.5203,1.5217,1.5084,1.5082,1.5081,0,1.4083,1.4222,1.4321,1.4362,1.4476,1.4521,1.4571,1.4651,1.4706,1.4786,1.4823,1.4911,1.4961,1.503,1.5084,1.5061,1.5206,1.5185,1.5236,1.5234,1.5265,1.5263,1.5376,1.5292,1.5291,1.5291,1.5291,0,1.4168,1.4248,1.4336,1.4396,1.4488,1.4544,1.4634,1.4685,1.4757,1.483,1.4864,1.4931,1.4998,1.5074,1.5117,1.5216,1.5237,1.5266,1.5277,1.5265,1.5261,1.5297,1.5293,1.5295,1.5294,1.5293,1.5293,0,1.4216,1.4277,1.4387,1.4487,1.4514,1.4578,1.4664,1.4725,1.4775,1.4866,1.4891,1.4969,1.5061,1.5122,1.5238,1.5268,1.5377,1.5385,1.5349,1.5355,1.5404,1.5399,1.5545,1.5569,1.5466,1.5467,1.5468,0,1.4267,1.433,1.4437,1.4489,1.4539,1.4621,1.4678,1.4736,1.4794,1.4895,1.4945,1.5039,1.5118,1.5264,1.5332,1.5423,1.5435,1.548,1.5449,1.5436,1.5439,1.5436,1.5444,1.5485,1.5486,1.5487,1.5487,0,1.4352,1.438,1.446,1.4553,1.462,1.4695,1.4771,1.4811,1.4883,1.4946,1.5042,1.5103,1.5225,1.5319,1.5417,1.5469,1.5492,1.5497,1.5514,1.5503,1.5481,1.5497,1.5366,1.5493,1.5493,1.5492,1.5492,1.5492,1.4405,1.4464,1.455,1.464,1.4703,1.4774,1.4838,1.4896,1.4977,1.5081,1.5111,1.5211,1.5296,1.543,1.5484,1.5564,1.5559,1.5583,1.559,1.5595,1.5598,1.5467,1.5582,1.5582,1.5581,1.5581,1.5581,0,1.4495,1.4553,1.4634,1.474,1.4812,1.4827,1.4912,1.4971,1.5059,1.5136,1.5214,1.5326,1.5419,1.5495,1.5591,1.5641,1.5654,1.5665,1.5663,1.5675,1.5595,1.5572,1.5653,1.5653,1.5653,1.5653,1.5653,1.5653,1.455,1.4652,1.4691,1.4826,1.4884,1.4983,1.5031,1.5097,1.516,1.5283,1.5361,1.541,1.5488,1.5591,1.5678,1.5698,1.5733,1.5742,1.5765,1.5688,1.568,1.5673,1.5652,1.5749,1.5749,1.5839,1.584,1.5841]}]]